0 HST
1 20580U 90037B 25300.93009246 .00009662 00000-0 34408-3 0 9992
2 20580 28.4672 224.0916 0002144 83.0893 276.9946 15.27181288752989
0 ISS (ZARYA)
1 25544U 98067A 25300.68375554 .00015570 00000-0 28487-3 0 9993
2 25544 51.6344 10.4932 0004705 346.2107 13.8753 15.49527127535714
0 CXO
1 25867U 99040B 25301.66016621 .00000932 00000-0 00000-0 0 9993
2 25867 52.1339 124.2561 8214465 310.6062 0.1647 0.37799947 16440